DW2270 Weather Reports


Display with metric or nautical units.
time (UTC)temp
F
wind
direction
speed
MPH
gust
MPH
rain 1hr
in
rain 24hr
in
rain mn
in
humidity
%
barometer
mb
20260904030042 79 9 0.0 0.0 0.00 0.53 0.30 1 1012.4
20260904025010 79 9 0.0 0.0 0.00 0.53 0.30 1 1012.4
20260904022842 79 9 0.0 0.0 0.00 0.53 0.30 1 1012.2
20260904021811 79 9 0.0 0.0 0.00 0.53 0.30 1 1012.1
20260904020746 79 9 0.0 0.0 0.00 0.53 0.30 1 1011.9
20260904015713 79 9 0.0 0.0 0.00 0.53 0.30 1 1011.8
20260904014735 79 9 0.0 0.0 0.00 0.53 0.30 1 1011.7
20260904012600 79 9 0.0 0.0 0.00 0.55 0.30 1 1011.6
20260904011538 79 9 0.0 0.0 0.00 0.62 0.30 1 1011.6
20260904005422 79 9 0.0 0.0 0.00 1.21 0.30 1 1011.4
20260904004440 80 9 0.0 0.0 0.00 1.22 0.30 1 1011.5
20260904002326 80 9 0.0 0.0 0.00 1.22 0.30 1 1011.7
20260904001309 80 9 0.0 0.0 0.00 1.22 0.30 1 1011.8
20260904000318 80 9 0.0 0.0 0.00 1.22 0.30 1 1011.8
20260903235317 80 331 0.0 0.0 0.00 1.22 0.30 1 1011.7
20260903234316 80 331 0.0 0.0 0.00 1.22 0.30 1 1011.8
20260903232203 80 331 0.0 0.0 0.00 1.24 0.30 1 1011.9
20260903231143 80 331 0.0 0.0 0.00 1.35 0.30 1 1012.0
20260903230145 80 331 0.0 0.0 0.00 1.41 0.30 1 1011.9
20260903225137 79 331 0.0 0.0 0.00 1.41 0.30 1 1011.9
20260903224155 79 331 0.0 2.0 0.00 1.41 0.30 1 1011.7
20260903223136 79 0 0.0 1.0 0.00 1.41 0.30 1 1011.8
20260903222157 79 0 0.0 0.0 0.00 1.41 0.30 1 1011.9
20260903221202 79 22 0.0 0.0 0.00 1.41 0.30 1 1012.1
20260903220203 79 22 0.0 0.0 0.00 1.41 0.30 1 1012.3
20260903215203 79 52 0.0 0.0 0.00 1.41 0.30 1 1012.5
20260903214130 78 52 0.0 0.0 0.00 1.41 0.30 1 1012.3
20260903213152 78 52 0.0 0.0 0.00 1.41 0.30 1 1012.3
20260903212132 78 52 0.0 0.0 0.00 1.41 0.30 1 1012.5
20260903211119 78 52 0.0 0.0 0.00 1.41 0.30 1 1012.7
20260903205004 78 52 0.0 0.0 0.00 1.41 0.30 1 1013.1
20260903203946 78 52 0.0 0.0 0.04 1.41 0.30 1 1013.2
20260903201838 78 52 0.0 0.0 0.00 1.40 0.28 1 1013.3
20260903200844 78 52 0.0 0.0 0.00 1.39 0.27 1 1013.4
20260903194644 78 52 0.0 0.0 0.00 1.38 0.27 1 1013.2
20260903193654 78 52 0.0 0.0 0.00 1.38 0.27 1 1013.4
20260903192656 78 52 0.0 0.0 0.00 1.38 0.27 1 1013.5
20260903191707 78 52 0.0 0.0 0.06 1.38 0.27 1 1013.6
20260903190653 79 52 0.0 0.0 0.10 1.37 0.26 1 1013.5
20260903185702 79 60 0.0 0.0 0.10 1.35 0.24 1 1013.8
20260903184725 79 60 0.0 0.0 0.18 1.32 0.21 1 1014.2
20260903182607 79 60 0.0 0.0 0.00 1.31 0.20 1 1014.2
20260903181604 80 65 0.0 0.0 0.00 1.31 0.20 1 1014.0
20260903175447 81 157 0.0 2.0 0.00 1.31 0.20 1 1014.5
20260903172221 83 79 0.0 0.0 0.00 1.31 0.20 1 1014.3
20260903171246 83 79 0.0 0.0 0.00 1.31 0.20 1 1013.9
20260903170227 83 79 0.0 0.0 0.00 1.31 0.20 1 1014.0
20260903165209 83 79 0.0 0.0 0.00 1.31 0.20 1 1014.3
20260903163056 82 79 0.0 0.0 0.00 1.31 0.20 1 1014.0
20260903162110 82 79 0.0 0.0 0.00 1.31 0.20 1 1014.0
20260903161043 83 98 0.0 0.0 0.00 1.31 0.20 1 1013.9
20260903160017 83 96 0.0 0.0 0.00 1.31 0.20 1 1013.9
20260903153901 83 96 0.0 0.0 0.00 1.31 0.20 1 1013.8
20260903152829 83 96 0.0 0.0 0.00 1.31 0.20 1 1013.9
20260903151840 83 97 0.0 2.0 0.00 1.31 0.20 1 1014.1
20260903150822 82 90 0.0 1.0 0.00 1.31 0.20 1 1014.1
20260903145814 82 90 0.0 0.0 0.00 1.31 0.20 1 1014.2
20260903143652 82 90 0.0 0.0 0.00 1.31 0.20 1 1014.5
20260903142630 81 90 0.0 0.0 0.00 1.31 0.20 1 1014.4
20260903141636 81 90 0.0 1.0 0.00 1.31 0.20 1 1014.3
20260903140602 81 90 0.0 0.0 0.00 1.31 0.20 1 1014.3
20260903135602 81 90 0.0 0.0 0.00 1.31 0.20 1 1014.1
20260903134625 81 90 0.0 0.0 0.00 1.31 0.20 1 1014.1
20260903133622 81 90 0.0 0.0 0.00 1.31 0.20 1 1014.0
20260903132629 80 90 0.0 0.0 0.00 1.31 0.20 1 1014.0
20260903131608 80 90 0.0 0.0 0.00 1.31 0.20 1 1013.9
20260903130556 80 90 0.0 0.0 0.00 1.31 0.20 1 1014.0
20260903125606 80 90 0.0 0.0 0.00 1.31 0.20 1 1013.9
20260903124550 80 90 0.0 0.0 0.00 1.31 0.20 1 1013.9
20260903123515 79 90 0.0 0.0 0.00 1.31 0.20 1 1013.6
20260903121338 79 90 0.0 0.0 0.00 1.31 0.20 1 1013.0
20260903120317 79 90 0.0 0.0 0.00 1.31 0.20 1 1013.0
20260903115338 79 90 0.0 0.0 0.00 1.31 0.20 1 1013.1
20260903114340 79 90 0.0 0.0 0.00 1.31 0.20 1 1013.0
20260903112244 79 90 0.0 0.0 0.00 1.31 0.20 1 1012.8
20260903111301 79 90 0.0 0.0 0.00 1.31 0.20 1 1012.9
20260903110300 79 90 0.0 0.0 0.00 1.31 0.20 1 1012.9
20260903105246 79 90 0.0 0.0 0.00 1.31 0.20 1 1012.9
20260903104248 79 90 0.0 0.0 0.00 1.31 0.20 1 1012.7
20260903103249 79 90 0.0 0.0 0.00 1.31 0.20 1 1012.6
20260903102301 79 90 0.0 0.0 0.00 1.31 0.20 1 1012.6
20260903101305 79 90 0.0 0.0 0.00 1.31 0.20 1 1012.6
20260903100249 79 90 0.0 0.0 0.00 1.31 0.20 1 1012.6
20260903095225 79 90 0.0 0.0 0.00 1.31 0.20 1 1012.6
20260903094245 79 90 0.0 0.0 0.00 1.31 0.20 1 1012.5
20260903093232 79 90 0.0 0.0 0.00 1.31 0.20 1 1012.5
20260903092248 79 90 0.0 0.0 0.00 1.31 0.20 1 1012.5
20260903091230 79 90 0.0 0.0 0.00 1.31 0.20 1 1012.5
20260903090228 79 90 0.0 0.0 0.00 1.31 0.20 1 1012.5
20260903085153 79 90 0.0 0.0 0.00 1.32 0.20 1 1012.5
20260903084140 79 90 0.0 0.0 0.00 1.32 0.20 1 1012.5
20260903083125 79 90 0.0 0.0 0.00 1.32 0.20 1 1012.4
20260903082132 79 90 0.0 0.0 0.00 1.32 0.20 1 1012.3
20260903075955 79 90 0.0 0.0 0.00 1.32 0.20 1 1012.3
20260903075013 79 90 0.0 0.0 0.00 1.32 0.20 1 1012.3
20260903073950 79 90 0.0 0.0 0.00 1.32 0.20 1 1012.2
20260903071855 79 90 0.0 0.0 0.00 1.32 0.20 1 1012.2
20260903070844 79 90 0.0 0.0 0.00 1.32 0.20 1 1012.3
20260903065816 79 90 0.0 0.0 0.00 1.32 0.20 1 1012.5
20260903064807 79 90 0.0 0.0 0.00 1.32 0.20 1 1012.4
20260903063828 79 90 0.0 0.0 0.00 1.32 0.20 1 1012.5
20260903062816 79 90 0.0 0.0 0.00 1.32 0.20 1 1012.6
20260903061749 79 90 0.0 0.0 0.00 1.32 0.20 1 1012.7
20260903060734 79 90 0.0 0.0 0.00 1.32 0.20 1 1012.7
20260903055721 79 0 0.0 7.0 0.06 1.32 0.20 1 1012.8
20260903054744 79 152 0.0 0.0 0.06 1.31 0.19 1 1012.8
20260903053804 78 152 0.0 0.0 0.21 1.30 0.18 1 1013.1
20260903052802 78 152 0.0 0.0 0.04 1.28 0.16 1 1013.3
20260903051744 78 152 0.0 0.0 0.13 1.28 0.16 1 1013.5
20260903050730 78 99 0.0 6.0 0.66 1.12 0.13 1 1013.7
20260903045752 78 296 0.0 1.0 1.40 1.07 1.10 1 1013.8
20260903044722 78 292 0.0 0.0 0.24 0.94 0.96 1 1014.0
20260903043737 78 292 0.0 1.0 0.00 0.90 0.90 1 1014.1
20260903041645 78 328 0.0 0.0 0.00 0.89 0.89 1 1014.2
20260903035545 78 328 0.0 0.0 0.00 0.89 0.89 1 1013.9
20260903034554 78 328 0.0 0.0 0.00 0.89 0.89 1 1013.6
20260903033540 78 328 0.0 0.0 0.00 0.89 0.89 1 1013.6
20260903032548 77 328 0.0 3.0 0.00 0.89 0.89 1 1013.5
20260903031532 77 117 0.0 0.0 0.00 0.89 0.89 1 1013.5
20260903030514 77 117 0.0 0.0 0.00 0.89 0.89 1 1013.4